Weather Roundup
Issued by NWS Corpus Christi, TX

Home | Current Version | Previous Version | Text Only | Print | Product List | Glossary Off
Versions: 1 2 3 4 5 6 7 8 9 10 11 12 13 14 15 16 17 18 19 20 21 22 23 24 25 26 27 28 29 30 31 32 33 34 35 36 37 38 39 40 41 42 43 44 45 46 47 48 49 50

704
ASUS44 KCRP 171110
HRRCRP

SOUTH TEXAS REGIONAL WEATHER ROUNDUP
NATIONAL WEATHER SERVICE CORPUS CHRISTI TX
500 AM CST WED JAN 17 2018


TXZ229>244-171200-
...CORPUS CHRISTI AREA OBSERVATIONS...

CITY           SKY/WX    TMP DP  RH WIND       PRES   REMARKS
CORPUS CHRISTI CLOUDY    30  13  49 N18       30.69F WCI  18
NAS CORPUS CHR CLOUDY    32  13  45 N25G32    30.68F WCI  19
ROCKPORT       CLOUDY    28  11  48 N21G29    30.69F WCI  15
KINGSVILLE ARP CLOUDY    32  13  45 N8        30.70F
KINGSVILLE NAS CLOUDY    31  10  41 N12       30.70F WCI  22
ALICE          CLOUDY    31   7  36 N14       30.69F WCI  21
$$

...VICTORIA AREA OBSERVATIONS...

CITY           SKY/WX    TMP DP  RH WIND       PRES   REMARKS
PORT LAVACA    CLOUDY    25  17  71 N13       30.72F WCI  13
VICTORIA       CLOUDY    24  13  62 N14       30.72F WCI  12
BEEVILLE       CLOUDY    29   9  42 N13G18    30.70S WCI  19
PLEASANTON     CLOUDY    31   7  36 NE8       30.70F
SAN ANTONIO    CLOUDY    27   3  35 N13       30.70F WCI  16
$$

...LAREDO AREA OBSERVATIONS...

CITY           SKY/WX    TMP DP  RH WIND       PRES   REMARKS
LAREDO         CLOUDY    32  16  51 NE10      30.70F WCI  24
COTULLA        CLOUDY    32   6  33 NE6       30.70F
DEL RIO        CLOUDY    33   1  25 NE5       30.66F
MCALLEN        NOT AVBL
HEBBRONVILLE   CLOUDY    28  21  75 N3        30.68S
$$

...OTHER TEXAS OBSERVATIONS...

CITY           SKY/WX    TMP DP  RH WIND       PRES   REMARKS
BROWNSVILLE    NOT AVBL
HOUSTON        CLOUDY    20  11  68 NW6       30.73R
COL. STATION   CLOUDY    16   7  67 N7        30.76R
AUSTIN         CLOUDY    19   8  62 N12       30.75S WCI   7
WACO           CLOUDY    11   5  77 NW5       30.76S
FORT WORTH     CLOUDY    15   4  61 N7        30.73F
WICHITA FALLS  CLOUDY     9   0  67 W6        30.72S
LUBBOCK        CLOUDY    13  -6  42 SW6       30.50F
EL PASO        PTCLDY    25   5  42 CALM      30.43F
$$

...MARINE OBSERVATIONS...

STATION/POSITION TIME  SKY/WX   TEMP    WIND        PRES    VSBY  WAVE   SWELL
                                AIR SEA DIR/SP/G                  HT/PER HT/PER
                 (UTC)          (F)     (DEG/KT/KT) (MB)    (MI)  (FT/S) (FT/S)
PORT ARANSAS     NOT AVBL
BUOY 90 E PORT A 0950            40 70  360/ 21/ 29 1036.0          9/ 8
BUOY 200 E PT IS 0950            56 73   20/ 21/ 27 1030.6         11/ 9   7/ 9
BUOY 15 E GALVES 0950            29 52   10/ 21/ 27 1037.7          4/ 5
$$




USA.gov is the U.S. government's official web portal to all federal, state and local government web resources and services.